Location: Holbach
(51.5399°N, 10.6036°E)
Time: 14:56:00
(UTC+00:00)

USA 186 - Pass Details

Date: 18 September 2020
Orbit: 261 x 425 km, 96.9° (Epoch: 12 October)

Event Time Altitude Azimuth Distance (km) Brightness Sun altitude
Exits shadow 18:49:23 - 171° (S) 1,499 4.3 -13.7°
Reaches altitude 10° 18:49:31 10° 172° (S) 1,444 4.2 -13.8°
Maximum altitude 18:52:36 75° 258° (WSW) 432 1.9 -14.2°
Drops below altitude 10° 18:55:52 10° 344° (NNW) 1,519 5.1 -14.7°
Sets 18:57:56 0° 347° (NNW) 2,403 6.1 -15.0°
